www.pogodaiklimat.ru

Погода и климат >> Архив погоды >> Франция >> Шамбери


ПОГОДА в Шамбери

  • Прогноз погоды в Шамбери
  • Монитор погоды в Шамбери

АРХИВ ПОГОДЫ в Шамбери

Время (UTC), дата Ветер
(напр.,м/с)
 
Видим.   Явления Облачность Т
(С)
Тd
(С)
f
(%)
Тe
(С)
Тes
(С)
Комфортность P
(гПа)
Po
(гПа)
Тmin
(С)
Tmax
(С)
R
(мм)
R24
(мм)
S
(см)
01 14.07 С 3 40 км н/о +19.4 +11.4 60 +21 +21 комфорт 1014.7 987.5
02 14.07 С 3 40 км н/о +19.0 +11.3 61 +20 +20 1014.5 987.2
03 14.07 С 3
{9}
45 км н/о +18.7 +11.3 62 +20 +20 1014.1 986.8 0
04 14.07 СЗ 1 35 км н/о +16.1 +10.6 70 +18 +18 1014.4 986.9
05 14.07 В 1 30 км н/о +15.0 +10.6 75 +16 +16 1014.6 986.9
06 14.07 ЮВ 1
{3}
35 км н/о +18.2 +11.5 65 +20 +20 1014.3 987.0 +14.5 +25.1 0
07 14.07 С 3 14 км н/о +20.4 +12.4 60 +23 +23 комфорт 1014.1 987.0
08 14.07 С 3 11 км н/о +21.5 +12.6 57 +24 +24 комфорт 1013.9 986.9
09 14.07 С 2
{8}
19 км н/о +22.7 +12.6 53 +25 +25 комфорт 1013.5 986.6 0
10 14.07 С 2 10 км н/о +24.1 +13.6 52 +26 +26 жарко 1012.6 985.9
11 14.07 С 3 8000 м н/о +25.4 +12.9 46 +27 +27 жарко 1011.9 985.3
12 14.07 С 3
{8}
17 км н/о +26.6 +12.6 42 +28 +28 жарко 1011.2 984.7 0
13 14.07 С 3 19 км н/о +27.1 +12.3 40 +29 +29 жарко 1010.6 984.2
14 14.07 С 3 15 км н/о +27.6 +10.3 34 +28 +28 жарко 1010.2 983.8
15 14.07 С 2
{6}
35 км н/о +27.2 +12.0 39 +28 +28 жарко 1009.8 983.4 0
16 14.07 С 2 40 км 8/8 2000 м
[]
+25.7 +13.9 48 +28 +29 жарко 1009.5 983.0
17 14.07 С 3 30 км 9/9
[]
+25.8 +13.3 46 +28 +28 жарко 1009.4 982.9
18 14.07 С 4
{11}
35 км н/о +25.1 +12.0 44 +27 +27 жарко 1009.6 983.0 +18.3 +28.1 0
19 14.07 С 3 45 км 10/10 2000 м
[]
+24.2 +11.8 46 +26 +26 жарко 1010.1 983.4
20 14.07 С 3 40 км 10/10
[]
+23.3 +12.3 50 +26 +26 жарко 1010.5 983.7
21 14.07 С 3
{10}
5000 м дождь 10/10 1000 м
[]
+19.1 +15.2 78 +21 +21 комфорт 1011.7 984.6 2 0
22 14.07 З 1 20 км слаб. дождь 10/1 800 м
[]
+17.4 +15.4 88 +18 +18 1012.5 985.2 5
23 14.07 С 2 35 км н/о +17.9 +13.6 76 +18 +18 1012.3 985.0 0.0
00 15.07 С 3
{9}
50 км н/о +17.8 +12.7 72 +18 +18 1012.5 985.2 5 0
01 15.07 СВ 3 55 км н/о +17.3 +12.0 71 +17 +17 1012.6 985.2
02 15.07 С 3 55 км 8/6 1050 м
[]
+17.0 +12.1 73 +17 +17 1012.4 985.0
03 15.07 С 2
{9}
55 км 9/9 1000 м
[]
+16.9 +11.8 72 +17 +17 1011.8 984.4 0
04 15.07 СВ 1 55 км 10/10 960 м
[]
+16.1 +11.9 76 +17 +17 1012.1 984.6
05 15.07 СВ 2 60 км 10/10 930 м
[]
+16.6 +11.7 73 +17 +17 1012.3 984.9
06 15.07 С 3
{8}
55 км 10/10 1000 м
[]
+17.4 +12.3 72 +18 +18 1012.0 984.7 +16.1 +25.1 7 0
07 15.07 СВ 3 55 км 10/9 930 м
[]
+17.5 +12.2 71 +18 +18 1012.3 985.0
08 15.07 СВ 3 55 км 10/10 900 м
[]
+18.3 +12.7 70 +19 +19 1012.4 985.1
09 15.07 С 4
{11}
40 км 10/10 600 м
[]
+19.1 +12.8 67 +20 +20 1012.3 985.1 0
10 15.07 С 4 45 км 10/10 1110 м
[]
+19.6 +13.1 66 +21 +21 комфорт 1012.3 985.2
11 15.07 С 4 40 км 10/9 1200 м
[]
+20.6 +12.8 61 +23 +24 комфорт 1012.0 985.0
12 15.07 С 4
{12}
45 км 10/10 1000 м
[]
+21.6 +13.0 58 +24 +27 комфорт 1012.0 985.0 0
13 15.07 С 4 20 км 10/10 1500 м
[]
+23.2 +13.9 56 +27 +27 душно 1012.0 985.2
14 15.07 С 3 8000 м 9/4 1440 м
[]
+24.1 +13.3 51 +26 +30 жарко 1012.3 985.6
15 15.07 С 3
{11}
9000 м н/о +25.0 +12.9 47 +27 +27 жарко 1012.2 985.5 0
16 15.07 С 3 12 км н/о +24.8 +13.7 50 +27 +27 жарко 1012.1 985.4
17 15.07 С 6
{10}
19 км н/о +24.5 +13.4 50 +27 +27 жарко 1012.2 985.5
18 15.07 С 3
{10}
45 км н/о +22.8 +12.7 53 +26 +26 жарко 1012.9 986.0 +17.1 +25.1 0
19 15.07 С 3 45 км н/о +22.2 +13.0 56 +25 +25 комфорт 1013.4 986.5
20 15.07 С 3 45 км н/о +21.3 +13.2 60 +24 +24 комфорт 1014.1 987.1
21 15.07 С 2
{8}
45 км н/о +20.2 +12.7 62 +23 +23 комфорт 1014.8 987.6 0
22 15.07 З 1 35 км н/о +18.3 +13.4 73 +20 +20 1015.2 987.9
23 15.07 СЗ 1 35 км н/о +17.8 +12.7 72 +19 +19 1015.5 988.1
00 16.07 ЮВ 1
{3}
40 км н/о +15.3 +12.6 84 +16 +16 1016.1 988.5 0
01 16.07 ЮВ 1 29 км н/о +14.5 +12.2 86 +16 +16 1016.3 988.6
02 16.07 ЮВ 1 19 км н/о +13.7 +12.4 92 +15 +15 1016.4 988.6
03 16.07 З 1
{2}
9000 м н/о +13.2 +11.8 91 +14 +14 1016.6 988.7 0
04 16.07 Ю 1 10 км н/о +12.5 +11.2 92 +13 +13 1017.0 989.0
05 16.07 ЮЗ 1 8000 м н/о +12.7 +11.9 95 +13 +13 1017.1 989.2
06 16.07 ЮВ 1
{2}
14 км н/о +16.0 +14.0 88 +17 +17 1017.2 989.6 +12.1 +22.8 0
07 16.07 С 1 30 км н/о +19.4 +14.0 71 +22 +22 комфорт 1017.0 989.7
08 16.07 СЗ 1 19 км н/о +21.3 +13.7 62 +24 +24 комфорт 1016.7 989.6
09 16.07 С 2
{5}
13 км н/о +22.7 +14.8 61 +26 +26 жарко 1016.1 989.2 0
10 16.07 С 2 19 км н/о +24.1 +14.8 56 +27 +27 жарко 1015.6 988.8
11 16.07 С 2 22 км н/о +26.1 +15.5 52 +29 +29 жарко 1015.0 988.4
12 16.07 С 2
{6}
17 км н/о +26.7 +14.5 47 +29 +29 жарко 1014.6 988.0 0
13 16.07 С 2 14 км н/о +28.2 +12.5 38 +30 +30 жарко 1013.9 987.5
14 16.07 С 3 23 км н/о +28.9 +11.5 34 +30 +30 жарко 1013.7 987.3
15 16.07 С 2
{6}
45 км н/о +29.0 +12.4 36 +30 +30 жарко 1013.2 986.9 0
16 16.07 С 1 30 км н/о +29.2 +10.3 31 +29 +29 жарко 1013.0 986.7
17 16.07 С 1 40 км н/о +28.7 +13.4 39 +30 +30 жарко 1012.8 986.5
18 16.07 С 1
{4}
40 км н/о +27.1 +14.1 45 +29 +29 жарко 1013.1 986.6 +16.1 +29.7 0
19 16.07 Ю 1 40 км н/о +22.6 +14.7 61 +26 +26 жарко 1013.7 986.8
20 16.07 ЮЗ 1 500 м н/о +20.0 +14.8 72 +24 +24 комфорт 1014.1 987.0
21 16.07 ЮВ 1
{3}
35 км н/о +18.8 +14.1 74 +21 +21 комфорт 1014.6 987.3 0
22 16.07 Ю 1 35 км н/о +17.9 +13.8 77 +20 +20 1014.9 987.5
23 16.07 ЮЗ 1 30 км н/о +16.7 +13.2 80 +18 +18 1015.2 987.7
00 17.07 ЮВ 1
{2}
45 км н/о +15.4 +13.1 86 +16 +16 1015.4 987.8 0
01 17.07 ЮВ 1 30 км н/о +15.1 +12.8 86 +16 +16 1015.5 987.9
02 17.07 З 1 30 км н/о +14.8 +12.1 84 +16 +16 1015.3 987.6
03 17.07 Ю 1
{3}
19 км н/о +13.8 +12.0 89 +14 +14 1015.1 987.3 0
04 17.07 ЮВ 1 25 км н/о +13.6 +12.2 91 +15 +15 1015.4 987.6
05 17.07 Ю 1 17 км н/о +14.1 +12.7 91 +15 +15 1015.4 987.7
06 17.07 Ю 1
{2}
16 км н/о +16.8 +14.1 84 +18 +18 1015.4 987.9 +12.7 +27.0 0
07 17.07 СВ 1 23 км н/о +20.5 +13.7 65 +24 +24 комфорт 1015.1 988.0
08 17.07 С 1 29 км н/о +21.9 +13.8 60 +25 +25 комфорт 1014.7 987.7
09 17.07 С 2
{5}
14 км н/о +22.7 +15.0 62 +27 +27 душно 1014.2 987.3 0
10 17.07 С 2 18 км н/о +24.6 +13.5 50 +27 +27 жарко 1013.8 987.1
11 17.07 С 2 25 км н/о +26.2 +14.6 49 +29 +29 жарко 1013.2 986.6
12 17.07 С 2
{6}
24 км н/о +28.1 +13.6 41 +30 +30 жарко 1012.2 985.8 0
13 17.07 СВ 2 17 км н/о +29.3 +12.3 35 +30 +30 жарко 1011.8 985.5
14 17.07 С 2 25 км н/о +29.9 +10.4 30 +30 +30 жарко 1011.4 985.2
15 17.07 С 2
{7}
35 км н/о +30.1 +11.6 32 +31 +31 жарко 1011.0 984.8 0
16 17.07 С 2
{6}
40 км н/о +30.4 +10.9 30 +31 +31 жарко 1010.6 984.4
17 17.07 З 2
{7}
45 км н/о +30.4 +10.4 29 +30 +30 жарко 1010.5 984.3
18 17.07 ЮЗ 2
{4}
50 км н/о +26.4 +10.5 37 +27 +27 жарко 1010.8 984.3 +16.8 +30.5 0
19 17.07 Ю 2
{3}
50 км н/о +22.2 +10.3 47 +24 +24 комфорт 1011.3 984.4
20 17.07 ЮВ 1
{2}
1200 м дымка н/о +20.0 +10.7 55 +23 +23 комфорт 1012.0 984.9
21 17.07 ЮВ 2
{3}
40 км н/о +17.8 +11.1 65 +19 +19 1012.7 985.4 0
22 17.07 ЮВ 1 35 км н/о +16.6 +10.9 69 +18 +18 1013.1 985.6
23 17.07 Ю 1
{2}
35 км н/о +16.2 +10.7 70 +17 +17 1013.4 985.9
00 18.07 Ю 1
{2}
35 км н/о +15.1 +11.3 78 +16 +16 1013.5 985.9 0
01 18.07 В 1 35 км н/о +14.4 +10.6 78 +16 +16 1013.7 986.0
02 18.07 ЮВ 1 35 км н/о +13.2 +10.7 85 +14 +14 1014.0 986.2
03 18.07 ЮВ 1
{3}
40 км н/о +12.3 +10.0 86 +12 +12 1014.0 986.1 0
04 18.07 Ю 1
{2}
30 км н/о +12.6 +10.5 87 +13 +13 1014.4 986.5
05 18.07 Ю 1
{2}
19 км н/о +11.9 +10.3 90 +12 +12 1014.7 986.7
06 18.07 ЮВ 1
{2}
17 км н/о +16.3 +12.1 76 +18 +18 1014.3 986.8 +11.9 +26.2 0
07 18.07 С 1 29 км н/о +19.7 +11.7 60 +23 +23 комфорт 1014.2 987.0
08 18.07 С 1 19 км н/о +21.3 +12.2 56 +23 +23 комфорт 1014.0 987.0
09 18.07 С 1
{4}
19 км н/о +22.8 +12.1 51 +25 +25 комфорт 1013.7 986.8 0
10 18.07 С 2 17 км н/о +25.0 +11.9 44 +27 +27 жарко 1013.2 986.5
11 18.07 С 2 30 км н/о +26.5 +12.9 43 +28 +28 жарко 1012.5 986.0
12 18.07 С 3
{7}
21 км н/о +28.2 +11.7 36 +29 +29 жарко 1012.1 985.7 0
13 18.07 С 2 14 км н/о +29.3 +12.3 35 +30 +30 жарко 1011.6 985.3
14 18.07 С 3 19 км н/о +28.9 +13.2 38 +30 +30 жарко 1011.4 985.1
15 18.07 С 2
{6}
24 км н/о +29.9 +11.4 32 +30 +30 жарко 1011.2 985.0 0
16 18.07 СЗ 2 20 км н/о +29.0 +12.0 35 +30 +30 жарко 1011.3 985.0
17 18.07 СЗ 2 35 км н/о +28.8 +12.2 36 +30 +30 жарко 1011.4 985.1
18 18.07 СЗ 2
{8}
35 км н/о +27.2 +12.0 39 +28 +28 жарко 1012.0 985.5 +16.4 +30.3 0
19 18.07 СЗ 2 40 км н/о +26.1 +11.8 41 +27 +27 жарко 1012.7 986.1
20 18.07 СЗ 1 1400 м дымка н/о +24.4 +11.7 45 +26 +26 жарко 1013.8 987.0
21 18.07 С 2
{8}
45 км н/о +24.5 +11.1 43 +26 +26 жарко 1014.5 987.7 0
22 18.07 С 1 45 км н/о +22.7 +12.3 52 +25 +25 комфорт 1014.8 987.9
23 18.07 Ю 1 35 км н/о +17.1 +12.8 76 +18 +18 1016.0 988.5
00 19.07 Ю 1
{3}
35 км н/о +16.3 +12.1 76 +17 +17 1016.4 988.8 0
01 19.07 Ю 1 35 км н/о +17.1 +12.2 73 +19 +19 1016.4 988.9
02 19.07 Ю 1 30 км н/о +14.8 +11.9 83 +15 +15 1016.7 989.0
03 19.07 З 1
{2}
35 км н/о +15.1 +12.4 84 +16 +16 1017.0 989.3 0
04 19.07 ЮВ 1 30 км н/о +13.8 +11.8 88 +15 +15 1017.4 989.6
05 19.07 Ю 1 19 км н/о +13.2 +11.4 89 +14 +14 1017.6 989.7
06 19.07 ЮВ 1
{2}
18 км н/о +18.3 +12.9 71 +20 +20 1017.3 989.9 +12.7 +27.2 0
07 19.07 СВ 1 30 км н/о +21.6 +13.5 60 +24 +24 комфорт 1017.3 990.2
08 19.07 С 1 30 км н/о +22.8 +13.8 57 +26 +26 жарко 1017.2 990.2
09 19.07 С 1
{4}
19 км н/о +23.9 +13.1 51 +26 +26 жарко 1016.8 989.9 0
10 19.07 С 2 20 км н/о +24.7 +12.3 46 +26 +26 жарко 1016.4 989.6
11 19.07 С 2 19 км н/о +26.7 +12.7 42 +28 +28 жарко 1015.7 989.1
12 19.07 С 1
{4}
16 км н/о +28.2 +12.9 39 +30 +30 жарко 1014.9 988.5 0
13 19.07 С 1 30 км н/о +29.2 +12.2 35 +30 +30 жарко 1014.5 988.1
14 19.07 С 2 30 км н/о +29.8 +13.1 36 +31 +31 жарко 1013.7 987.4
15 19.07 С 2
{5}
35 км н/о +30.4 +14.1 37 +32 +32 жарко 1013.2 987.0 0
17 19.07 С 1 45 км н/о +30.3 +14.0 37 +32 +32 жарко 1012.8 986.6
18 19.07 З 1
{3}
29 км н/о +26.6 +14.4 47 +29 +29 жарко 1013.1 986.6 +18.4 +30.5 0
19 19.07 штиль 0 35 км н/о +23.1 +15.7 63 +27 +27 душно 1013.5 986.7
20 19.07 Ю 1 700 м н/о +19.9 +14.5 71 +24 +24 комфорт 1014.3 987.1
21 19.07 Ю 1
{2}
50 км н/о +18.2 +14.3 78 +20 +20 1014.8 987.5 0
22 19.07 Ю 1 35 км н/о +18.9 +14.2 74 +22 +22 комфорт 1014.9 987.6
23 19.07 штиль 0 35 км н/о +17.3 +13.8 80 +17 +17 1015.2 987.8
00 20.07 З 1
{3}
50 км н/о +18.1 +13.8 76 +20 +20 1015.1 987.8 0
01 20.07 Ю 1 19 км н/о +16.9 +14.0 83 +18 +18 1015.3 987.8
02 20.07 СЗ 1 19 км н/о +15.9 +13.9 88 +17 +17 1015.5 987.9
03 20.07 ЮВ 1
{2}
13 км н/о +15.2 +13.4 89 +16 +16 1015.7 988.1 0
05 20.07 Ю 1 8000 м н/о +15.0 +13.7 92 +16 +16 1016.6 988.9
06 20.07 ЮВ 1
{2}
13 км н/о +18.7 +15.4 81 +21 +21 комфорт 1016.4 989.1 +14.3 +26.6 0
07 20.07 СВ 1 17 км н/о +22.3 +15.9 67 +26 +26 жарко 1016.1 989.1
08 20.07 С 2 17 км н/о +23.3 +16.6 66 +28 +28 душно 1016.4 989.5
09 20.07 СЗ 1
{5}
19 км н/о +25.6 +16.4 57 +29 +29 душно 1016.7 990.0 0
10 20.07 СЗ 2 19 км н/о +28.0 +15.3 46 +31 +31 душно 1016.7 990.2
11 20.07 С 2 13 км н/о +29.8 +14.7 40 +32 +32 душно 1016.2 989.9
12 20.07 С 2
{8}
18 км н/о +30.3 +16.0 42 +33 +33 душно 1015.8 989.5 0
13 20.07 СЗ 2 18 км 10/10
[]
+29.6 +15.7 43 +32 +32 душно 1015.3 989.0
14 20.07 С 2 19 км н/о +32.2 +12.9 31 +33 +33 жарко 1014.7 988.6
15 20.07 С 1
{5}
45 км 10/0
[]
+29.7 +15.8 43 +33 +33 душно 1014.8 988.5 0
16 20.07 С 1 30 км н/о +32.0 +13.7 33 +33 +33 жарко 1014.7 988.6
17 20.07 Ю 3 17 км 10/10
[]
+29.6 +16.8 46 +33 +33 душно 1015.0 988.7
18 20.07 СВ 1
{9}
19 км н/о +27.9 +16.2 49 +31 +31 душно 1015.2 988.8 +18.8 +32.3 0
19 20.07 Ю 1 19 км н/о +24.8 +18.0 66 +29 +29 душно 1015.7 989.0
20 20.07 С 1 23 км 8/8
[]
+24.4 +17.1 64 +28 +28 душно 1017.1 990.3
21 20.07 В 1 21 км 9/9
[]
+23.5 +17.9 71 +28 +28 душно 1017.9 991.0
22 20.07 Ю 1 18 км 10/10
[]
+22.4 +18.0 76 +27 +27 душно 1018.5 991.5
23 20.07 СЗ 1 21 км 10/10 2000 м
[]
+25.1 +14.8 53 +28 +28 жарко 1018.9 992.1
00 21.07 Ю 2 35 км 10/10 2000 м
[]
+25.1 +13.6 49 +27 +27 жарко 1019.3 992.5

 

Местоположение метеостанции Шамбери (Франция): широта 45.63 долгота 5.87 высота над уровнем моря 235 м.

В архиве по умолчанию представлена погода в Шамбери за последнюю неделю. Архивные данные за месяц целиком и за предыдущие месяцы, начиная с января 2011 года, Вы можете получить, выбрав интересующий диапазон дат из раскрывающегося списка и нажав кнопку "Ввод!".


*Определитесь, кто Вы:
робот инопланетянин человек

Внимание! Время в таблицах - всемирное. Для получения местного времени необходимо прибавить поправку, которая равна 1 ч.

Смотрите также архив погоды в соседних городах и на ближайших метеорологических станциях:

Погода в Анси (Франция) (38 км)
Погода в Гренобле (Франция) (46 км)
Погода в Гренобль аэропорту (Франция) (51 км)
Погода в Амберьё-ан-Бюже (Франция) (57 км)
Погода в Лионе (Франция) (62 км)
Погода в Бур-сен-Морисе (Франция) (70 км)
Погода в Женеве (Швейцария) (72 км)
Погода в Лион аэропорту (Франция) (74 км)
Погода в Шанжене (Швейцария) (90 км)
Погода на Ла Доли (Швейцария) (91 км)

Пояснения к столбцам:

Ветер - указаны скорость ветра в м/с - средняя за 10 мин, порывы в срок и между сроками (в фигурных скобках) и направление, откуда дует ветер: С - северный, СВ - северо-восточный, В - восточный, ЮВ - юго-восточный, Ю - южный, ЮЗ - юго-западный, З - западный, СЗ - северо-западный.
Видимость - горизонтальная дальность видимости в метрах или километрах. При видимости от 1 до 10 км при отсутствии осадков обычно наблюдается дымка, при ухудшении видимости до 1 км и менее - туман. В сухую погоду видимость может ухудшаться дымом, пылью или мглою.
Явления - указаны атмосферные явления, наблюдавшиеся в срок или в последний час перед сроком; фигурными скобками обозначены явления, наблюдавшиеся между сроками (за 1-3 часа до срока); квадратными скобками обозначены град или гололедные отложения с указанием их диаметра в мм.
Облачность - указаны через наклонную черту общая и нижняя облачность в баллах и высота нижней границы облаков в метрах; квадратными скобками обозначены формы облаков: Ci - перистые, Cs - перисто-слоистые, Cc - перисто-кучевые, Ac - высококучевые, As - высокослоистые, Sc - слоисто-кучевые, Ns - слоисто-дождевые, Cu - кучевые, Cb - кучево-дождевые. Подробнее классификацию облаков см. в Атласе облаков (PDF).
T - Температура воздуха - температура, измеренная на высоте 2 м над землей.
Td - Температура точки росы - температура, при понижении до которой содержащийся в воздухе водяной пар достигнет насыщения.
f - Относительная влажность воздуха - влажноcть воздуха, измеренная на высоте 2 м над землей.
Te - Эффективная температура - температура, которую ощущает одетый по сезону человек в тени. Характеристика душности погоды. При расчете учитывается влияние влажности воздуха и скорости ветра на теплоощущения человека.
Tes - Эффективная температура на солнце - температура, которую ощущает человек, с поправкой на солнечный нагрев. Характеристика знойности погоды. Зависит от высоты солнца над горизонтом, облачности и скорости ветра. Ночью, в пасмурную погоду, а также при ветре 12 м/с и более поправка равна нулю.
P - Атмосферное давление - приведенное к уровню моря атмосферное давление.
Po - Атмосферное давление - измеренное на уровне метеостанции атмосферное давление.
Tmin - Минимальная температура - минимум температуры воздуха на высоте 2 м над землей.
Tmax - Максимальная температура - максимум температуры воздуха на высоте 2 м над землей.
R - Количество осадков - Количество выпавших осадков за период времени, мм. При наведении курсора мыши на число - период времени, за который выпало указанное количество осадков.
R24 - Количество осадков - Количество выпавших осадков за 24 часа, мм.
S - Снежный покров - Высота снежного покрова, см. При наведении курсора мыши на число - состояние снежного покрова и степень покрытия местности в баллах.